Regional Weather Roundup
Issued by NWS Grand Forks, ND

Home | Current Version | Previous Version | Text Only | Print | Product List | Glossary Off
Versions: 1 2 3 4 5 6 7 8 9 10 11 12 13 14 15 16 17 18 19 20 21 22 23 24 25 26 27 28 29 30 31 32 33 34 35 36 37 38 39 40 41 42 43 44 45 46 47 48 49 50

000
ASUS43 KFGF 242110
RWRFGF
PRAIRIE TO PINES  WEATHER ROUNDUP
NATIONAL WEATHER SERVICE EASTERN NORTH DAKOTA/GRAND FORKS ND
400 PM CDT WED MAY 24 2017

 **SATELLITE DATA USED TO AUGMENT SKY COVER AT AUTOMATED STATIONS**
 *****  WEATHER ACROSS EASTERN NORTH DAKOTA  *****

CITY           SKY/WX    TMP DP  RH WIND       PRES   REMARKS
GRAND FORKS    PTSUNNY   67  42  40 SE21G29   29.64F
GRAND FRKS AFB PTSUNNY   67  41  39 S20G28    29.64F
DEVILS LAKE    FAIR      65  42  43 S23G29    29.59F
FARGO          CLOUDY    64  42  44 S13G22    29.67F
WAHPETON ARPT  CLOUDY    61  41  48 SE13      29.70S
$$

 ***** WEATHER ACROSS CENTRAL AND WESTERN NORTH DAKOTA  *****

CITY           SKY/WX    TMP DP  RH WIND       PRES   REMARKS
BISMARCK       FAIR      69  40  34 SE26G32   29.51F
MINOT          FAIR      72  33  24 S31G39    29.41F
JAMESTOWN      PTSUNNY   63  43  48 SE18G29   29.61F
MINOT AFB      FAIR      71  35  26 S28G40    29.41F
GARRISON         N/A     70  38  31 S24G31    29.44F
WILLISTON      FAIR      77  39  25 SE25G35   29.29F
DICKINSON      FAIR      71  34  25 S30G39    29.37F
HETTINGER      FAIR      73  37  27 S24G36    29.44F
$$

 *****  OTHER AIRPORT OBSERVATIONS IN OUR AREA  *****

CITY           SKY/WX    TMP DP  RH WIND       PRES   REMARKS
WALHALLA       NOT AVBL
GRAFTON AIRPOR FAIR      66  41  39 S22G29    29.65F
VALLEY CITY AR MOCLDY    61  43  51 S17       29.66F
CANDO          NOT AVBL
CAVALIER APRT  FAIR      68  39  34 SE22G32   29.61F
GWINNER        MOCLDY    63  43  48 MISG      29.66F
SHEYENNE NWR     N/A     63  44  50 SE13      29.95S
ROLLA          FAIR      66  39  37 S25G35    29.54F
 ***** THE ABOVE OBSERVATIONS ARE NON NWS ARE NOT QUALITY
       CONTROLLED AND MAY MIS-REPORT RAIN FOR SNOW...
$$

  *****  WEATHER ACROSS NORTHERN MINNESOTA  *****

CITY           SKY/WX    TMP DP  RH WIND       PRES   REMARKS
FLAG ISLAND    FAIR      63  41  45 CALM      29.69F
WARROAD        FAIR      66  43  42 E14       29.69F
ROSEAU         FAIR      68  43  40 SE13G22   29.68F
HALLOCK        FAIR      70  36  28 S20G31    29.64F
THF RVR FALLS  FAIR      64  40  41 S15G22    29.68F
BAUDETTE       FAIR      69  37  30 E12G20    29.69F
WASKISH        PTSUNNY   64  37  36 E10       29.70F
CROOKSTON      CLOUDY    66  41  39 SE20      29.66F
STEPHEN NDAWN    N/A     70  39  32 S18         N/A
GREENBUSH NDAW   N/A     68  37  32 S17         N/A
$$
  *****  WEATHER ACROSS CENTRAL AND WEST MINNESOTA  *****

CITY           SKY/WX    TMP DP  RH WIND       PRES   REMARKS
FOSSTON        PTSUNNY   64  39  39 E12G21    29.70F
BEMIDJI        PTSUNNY   61  41  47 SE12G20   29.72F
PARK RAPIDS    LGT RAIN  61  38  42 SE13      29.71F
ELBOW LAKE     CLOUDY    60  43  54 E10       29.71F
WADENA         CLOUDY    59  43  55 E9        29.71F
DETROIT LAKES  FAIR      61  41  48 SE14      29.71S
MOORHEAD       PTSUNNY   63  41  45 SE18      29.69F
FERGUS FALLS   PTSUNNY   61  43  51 S9        29.69S
MORRIS MN      CLOUDY    61  45  55 SE7       29.70F
STAPLES        CLOUDY    59  39  47 E7        29.72F
$$
  *****  WEATHER ELSEWHERE ACROSS MINNESOTA  *****

CITY           SKY/WX    TMP DP  RH WIND       PRES   REMARKS
DULUTH         PTSUNNY   57  43  59 NE17      29.76F
INTRNTL FALLS  FAIR      67  34  29 SE8       29.71F
ELY            CLOUDY    59  37  44 CALM      29.75F
CLOQUET        CLOUDY    55  39  54 E12G17    29.76S
WHEATON        CLOUDY    61  43  51 SE9       29.72S
BRAINERD       CLOUDY    60  42  51 NE10      29.73F
HIBBING        PTSUNNY   61  40  45 E13G22    29.75F
ALEXANDRIA     PTSUNNY   59  43  55 E13       29.72F
SAINT CLOUD    CLOUDY    58  44  60 E5        29.72F
MINNEAPOLIS    CLOUDY    62  44  51 NE10G17   29.71F
$$

  *****  WEATHER ACROSS SOUTH DAKOTA  *****

CITY           SKY/WX    TMP DP  RH WIND       PRES   REMARKS
SIOUX FALLS    CLOUDY    63  47  55 SE6       29.70F
BROOKINGS      CLOUDY    60  46  59 E8        29.70F
WATERTOWN      CLOUDY    60  45  57 S8        29.68F
HURON          FAIR      64  44  48 S12G20    29.66F
SISSETON         N/A     62  44  51 S13       29.68F
ABERDEEN       PTSUNNY   65  39  38 S16G26    29.64F
MITCHELL       CLOUDY    65  45  48 SE10      29.68F
PIERRE         FAIR      68  40  35 S18G31    29.56F
MOBRIDGE       FAIR      68  40  35 S20G29    29.53F
RAPID CITY     FAIR      76  45  33 S25G31    29.46F
$$

  *****  SOME WEATHER IN NEARBY STATES *****

CITY           SKY/WX    TMP DP  RH WIND       PRES   REMARKS
GLASGOW MT     LGT RAIN  74  27  17 W18G32    29.24R
GREAT FALLS MT FAIR      65  18  16 W35G52    29.40F
CHEYENNE WY    FAIR      77  33  20 W33G40    29.69F
SCOTTSBLUFF NE FAIR      81  43  26 SE7       29.53F
OMAHA NE       PTSUNNY   66  42  41 NE3       29.69F
DES MOINES IA  PTSUNNY   63  49  60 N9        29.67F
DAVENPORT IA   CLOUDY    60  52  74 NE13      29.62S
CHICAGO IL     CLOUDY    60  50  69 NE18G26   29.54F
EAU CLAIRE WI  PTSUNNY   64  46  52 NE7       29.67F
LA CROSSE WI   CLOUDY    60  50  69 NE9       29.67F
$$

  *****  SOME NATIONAL WEATHER *****

CITY           SKY/WX    TMP DP  RH WIND       PRES   REMARKS
LA GUARDIA NY  PTSUNNY   67  49  52 NE14      29.78R
RALEIGH NC     CLOUDY    73  68  84 SE8       29.60F
ATLANTA GA     FAIR      77  56  48 SW20G30   29.50S
NEW ORLEANS LA FAIR      78  52  40 W15G22    29.69S
OKLAHOMA CITY  FAIR      72  42  34 NW14G22   29.75F
ALBUQUERQUE NM FAIR      87  24  10 NW20      29.87F
SALT LAKE CITY FAIR      88  33  14 W12G23    29.66F
LOS ANGELES CA PTSUNNY   66  56  70 W10       29.85F
BOISE ID       FAIR      72  21  14 NW21      29.71F
SEATTLE WA     PTSUNNY   61  39  44 CALM      29.99F
$$

*** WEATHER ACROSS MANITOBA...SASKATCHEWAN AND ONTARIO ***
                ***ONTARIO***

CITY           SKY/WX    TMP DP  RH WIND       PRES   REMARKS
GERALDTON      MOSUNNY   64  23  20 SE5       29.79F
THUNDER BAY    MOSUNNY   63  32  31 SE14G20   29.77F
SIOUX LOOKOUT  MOSUNNY   66  28  24 S7        29.74F
TORONTO        PTSUNNY   70  45  40 E15G23    29.63S
BIG TROUT LK   SUNNY     66  27  22 SE7       29.73F
PICKLE LAKE    MOSUNNY   68  25  19 VRB7      29.75F
DRYDEN         SUNNY     68  28  22 SE17G23   29.72F
KENORA         NOT AVBL
$$
                *** MANITOBA***

CITY           SKY/WX    TMP DP  RH WIND       PRES   REMARKS
BRANDON        PTSUNNY   68  39  34 SE29G40   29.47F
DAUPHIN        SUNNY     72  34  25 S26G33    29.44F
ISLAND LAKE    MOSUNNY   73  30  20 S10G18    29.61F
PILOT MOUND      N/A     66  36  32 S31G38      N/A
THE PAS        PTSUNNY   70  39  32 MISG      29.39F
THOMPSON       PTSUNNY   73  34  23 S14G23    29.48R
WINNIPEG       MOSUNNY   70  37  30 S23G31    29.62F
LYNN LAKE      PTSUNNY   68  46  45 E8        29.38F
CHURCHILL      PTSUNNY   54  41  62 S15       29.42S
GILLAM         PTSUNNY   75  37  25 SW14G26   29.51F
$$
                ***SASKATCHEWAN***

CITY           SKY/WX    TMP DP  RH WIND       PRES   REMARKS
ESTEVAN        PTSUNNY   70  39  32 SE33G43   29.30F
KINDERSLEY     PTSUNNY   54  46  76 SW28G36   29.13S
LLOYDMINSTER   TSTM      54  52  94 W7        29.08R
PRINCE ALBERT  CLOUDY    70  41  35 SE22G36   29.12F
REGINA         LGT RAIN  63  52  67 SW20G26   29.23R
YORKTON          N/A     64  37  36 SE23G33   29.33F
N. BATTLEFORD  TSTM      54  48  82 W17G30    29.07R
LA RONGE       LGT RAIN  54  48  82 E7        29.33R
SASKATOON      PTSUNNY   70  41  35 SE14G23   29.05F
SWIFT CURRENT  MOSUNNY   64  30  27 W31G46    29.19
$$
NOTE: THESE ARE AUTOMATED STATIONS WITH LIMITED QUALITY CONTROL
      "FAIR" INDICATES FEW OR NO CLOUDS BELOW 12,000 FEET WITH NO
      SIGNIFICANT WEATHER AND/OR OBSTRUCTIONS TO VISIBILITY.
      SKY/WX - SKY CONDITION AND SIGNIFICANT WEATHER.
      TMP - AIR TEMPERATURE.    DP   - DEWPOINT TEMPERATURE.
      RH  - RELATIVE HUMIDITY.  PRES - PRESSURE.
      HX  - HEAT INDEX.         WCI  - WIND CHILL INDEX.
$




USA.gov is the U.S. government's official web portal to all federal, state and local government web resources and services.